Location: S�tio Afonso Gruber
(26.1760°S, 49.5250°W)
Time: 13:30:09
(UTC+00:00)

CREW DRAGON DEMO-1 DEB - Pass Details

Date: 07 June 2020
Orbit: 370 x 374 km, 51.6° (Epoch: 07 July)

Event Time Altitude Azimuth Distance (km) Brightness Sun altitude
Exits shadow 08:53:31 30° 219° (SW) 712 3.7 -14.8°
Maximum altitude 08:54:55 85° 134° (SE) 380 2.8 -14.5°
Drops below altitude 10° 08:57:59 10° 42° (NE) 1,369 6.6 -13.9°
Sets 09:00:00 0° 42° (NE) 2,210 7.8 -13.5°
